PLATFORM,ARGOS_ID,DATE (YYYY/MM/DD HH:MI:SS),LATITUDE (degree_north),LONGITUDE (degree_east),TEMP LEVEL0 (degree_Celsius),EWCT LEVEL1 (meter/second),NSCT LEVEL1 (meter/second),QC,SVP_RCBN_Number,SVP_GNRL_ImmPercent,SVP_GNRL_BattVolt
61794,80033,2011/05/01 18:30:00,43.0630,6.5280,-5,,,00111499,1,0,0
61794,80033,2011/05/01 19:04:15,43.0650,6.4827,22.36,-1.79079,0.108219,00144100,5,0,12.2
61794,80033,2011/05/01 19:30:16,43.0654,6.5037,22.36,1.09287,0.028493,00111100,5,0,12.2
61794,80033,2011/05/01 20:00:16,43.0677,6.6129,22.04,4.92824,0.142082,00144100,3,9,12.2
61794,80033,2011/05/01 20:30:17,43.0701,6.7246,21.64,5.03807,0.148178,00144100,3,9,12.2
61794,80033,2011/05/01 21:00:18,43.0718,6.8361,21.4,5.02888,0.104959,00144100,1,9,12.2
61794,80033,2011/05/01 21:30:40,43.0737,6.9474,21.16,4.96186,0.115955,00144100,1,9,12.2
61794,80033,2011/05/01 22:00:16,43.0762,7.0572,20.68,5.02159,0.156524,00144100,1,9,12.2
61794,80033,2011/05/01 22:30:24,43.0779,7.1695,20.44,5.04485,0.104553,00144100,1,9,12.2
61794,80033,2011/05/01 23:00:19,43.0798,7.2802,20.28,5.00884,0.117699,00144100,3,9,12.2
61794,80033,2011/05/01 23:30:40,43.0812,7.3935,20.12,5.05315,0.085488,00144100,3,9,12.2
61794,80033,2011/05/02 00:00:20,43.0827,7.5059,19.8,5.12836,0.093704,00144100,7,9,12.2
61794,80033,2011/05/02 00:30:17,43.0842,7.6214,19.56,5.21982,0.092817,00144100,7,9,12.2
61794,80033,2011/05/02 01:00:29,43.0856,7.7371,19.48,5.18545,0.085912,00144100,4,9,12.2
61794,80033,2011/05/02 01:30:19,43.0869,7.8522,19.08,5.22185,0.080756,00144100,4,7,12.2
61794,80033,2011/05/02 02:00:36,43.0878,7.9660,18.76,5.08606,0.055077,00144100,4,9,12.2
61794,80033,2011/05/02 02:30:16,43.0887,8.0745,18.6,4.94991,0.056222,00144100,4,9,12.2
61794,80033,2011/05/02 03:00:15,43.0896,8.1841,18.28,4.94721,0.055628,00144100,1,9,12.2
61794,80033,2011/05/02 03:30:40,43.0903,8.2950,18.2,4.93451,0.04265,00144100,4,11,12.2
61794,80033,2011/05/02 04:00:15,43.0909,8.4033,18.28,4.95451,0.037587,00144100,4,12,12.2
61794,80033,2011/05/02 04:30:18,43.0914,8.5152,18.2,5.03966,0.030836,00144100,3,12,12.2
61794,80033,2011/05/02 05:00:39,43.0918,8.6295,18.36,5.09683,0.024425,00144100,4,11,12.2
61794,80033,2011/05/02 05:30:14,43.0922,8.7405,18.68,5.07792,0.025058,00144100,4,11,12.2
61794,80033,2011/05/02 06:00:14,43.0924,8.8533,19.24,5.08857,0.012355,00144100,3,9,12.2
61794,80033,2011/05/02 06:30:17,43.0923,8.9638,19.64,4.97651,-0.006167,00144100,5,11,12.2
61794,80033,2011/05/02 07:00:23,43.0924,9.0715,19.96,4.84235,0.006157,00144100,5,9,12.2
61794,80033,2011/05/02 07:30:15,43.0929,9.1163,16.6,2.03,0.031025,00144100,5,9,12.2
61794,80033,2011/05/02 08:00:39,43.0949,9.1127,16.68,-0.16026,0.121924,00111100,5,36,12.2
61794,80033,2011/05/02 08:30:21,43.0962,9.1135,16.68,0.036452,0.081119,00111100,3,41,12.2
61794,80033,2011/05/02 09:00:11,43.0974,9.1138,16.68,0.013608,0.074544,00111100,3,52,12.2
61794,80033,2011/05/02 09:30:58,43.0993,9.1147,16.68,0.039563,0.114386,00111100,3,53,12.2
61794,80033,2011/05/02 10:00:38,43.1002,9.1159,16.68,0.054735,0.056222,00111100,3,38,12.2
61794,80033,2011/05/02 10:31:33,43.1015,9.1167,16.68,0.035014,0.077926,00111100,5,42,12.2
61794,80033,2011/05/02 11:00:16,43.1028,9.1176,16.76,0.042408,0.083896,00111100,5,46,12.2
61794,80033,2011/05/02 11:30:22,43.1043,9.1184,16.76,0.035963,0.092355,00111100,4,44,12.1
61794,80033,2011/05/02 12:00:16,43.1059,9.1199,16.76,0.067879,0.099171,00111100,4,55,12.1
61794,80033,2011/05/02 12:30:17,43.1077,9.1209,16.76,0.045076,0.111133,00111100,3,55,12.1
61794,80033,2011/05/02 13:00:23,43.1094,9.1230,16.68,0.094394,0.104669,00111100,3,55,12.1
61794,80033,2011/05/02 13:30:16,43.1113,9.1246,16.68,0.072439,0.117831,00111100,4,55,12.1
61794,80033,2011/05/02 14:00:29,43.1129,9.1265,16.6,0.08507,0.098131,00111100,4,53,12.1
61794,80033,2011/05/02 14:31:35,43.1145,9.1285,16.6,0.087001,0.095344,00111100,3,53,12.2
61794,80033,2011/05/02 15:03:05,43.1163,9.1303,16.6,0.077305,0.1059,00111100,4,61,12.2
61794,80033,2011/05/02 15:30:16,43.1176,9.1323,16.6,0.099531,0.088629,00111100,4,60,12.2
61794,80033,2011/05/02 16:00:28,43.1188,9.1339,16.6,0.07167,0.073639,00111100,4,53,12.2
61794,80033,2011/05/02 16:30:16,43.1210,9.1357,16.52,0.081709,0.136817,00111100,4,53,12.2
61794,80033,2011/05/02 17:01:27,43.1228,9.1373,16.52,0.069406,0.106975,00111100,3,47,12.2
61794,80033,2011/05/02 17:30:17,43.1247,9.1390,16.52,0.079751,0.122122,00111100,1,47,12.1
61794,80033,2011/05/02 17:31:27,43.1247,9.1390,16.52,0,0,00111100,3,47,12.1
61794,80033,2011/05/02 18:00:17,43.1266,9.1412,16.52,0.103205,0.122122,00111100,3,46,12.1
61794,80033,2011/05/02 18:30:16,43.1283,9.1438,16.44,0.117288,0.105076,00111100,3,46,12.1
61794,80033,2011/05/02 19:00:15,43.1297,9.1461,16.44,0.103752,0.086533,00111100,5,49,12.1
61794,80033,2011/05/02 19:31:03,43.1314,9.1485,16.44,0.105389,0.10229,00111100,5,49,12.2
61794,80033,2011/05/02 20:00:15,43.1326,9.1509,16.44,0.111161,0.076161,00111100,3,50,12.2
61794,80033,2011/05/02 20:30:16,43.1340,9.1535,16.44,0.117146,0.086437,00111100,5,49,12.1
61794,80033,2011/05/02 21:00:16,43.1354,9.1561,16.44,0.117208,0.086485,00111100,5,39,12.1
61794,80033,2011/05/02 21:30:16,43.1363,9.1588,16.44,0.121714,0.055597,00111100,1,39,11.7
61794,80033,2011/05/02 22:00:14,43.1381,9.1616,16.52,0.12636,0.111319,00111100,1,38,11.7
61794,80033,2011/05/02 22:30:23,43.1391,9.1644,16.52,0.125588,0.061468,00111100,3,44,12.1
61794,80033,2011/05/02 23:00:17,43.1400,9.1672,16.52,0.126637,0.055783,00111100,5,36,12.1
61794,80033,2011/05/02 23:30:18,43.1407,9.1703,16.52,0.139658,0.043218,00111100,7,36,12.1
61794,80033,2011/05/03 00:00:40,43.1411,9.1734,16.52,0.138047,0.024412,00111100,7,42,12.1
61794,80033,2011/05/03 00:30:15,43.1412,9.1754,16.6,0.091421,0.006265,00111100,5,41,12.1
61794,80033,2011/05/03 01:00:15,43.1414,9.1768,16.6,0.063105,0.012355,00111100,5,36,12.1
61794,80033,2011/05/03 01:30:16,43.1415,9.1779,16.6,0.049555,0.006174,00111100,5,34,12.1
61794,80033,2011/05/03 02:00:16,43.1418,9.1788,16.52,0.040568,0.018532,00111100,5,38,12.1
61794,80033,2011/05/03 02:30:16,43.1422,9.1793,16.52,0.022537,0.02471,00111100,4,39,12.1
61794,80033,2011/05/03 03:00:16,43.1429,9.1798,16.52,0.022537,0.043242,00111100,5,38,12.1
61794,80033,2011/05/03 03:30:18,43.1439,9.1801,16.52,0.013507,0.061706,00111100,6,39,12.1
61794,80033,2011/05/03 04:00:17,43.1450,9.1803,16.52,0.00902,0.06799,00111100,6,41,12.1
61794,80033,2011/05/03 04:30:38,43.1466,9.1809,16.52,0.026731,0.0977,00111100,6,41,12.1
61794,80033,2011/05/03 05:00:15,43.1484,9.1818,16.44,0.041089,0.112634,00111100,6,33,12.1
61794,80033,2011/05/03 05:30:15,43.1501,9.1834,16.44,0.072111,0.105017,00111100,4,33,12.1
61794,80033,2011/05/03 06:00:16,43.1517,9.1851,16.44,0.076573,0.098785,00111100,4,31,12.1
61794,80033,2011/05/03 06:30:15,43.1532,9.1873,16.44,0.099203,0.092714,00111100,7,30,12.1
61794,80033,2011/05/03 07:00:16,43.1545,9.1895,16.52,0.09909,0.080263,00111100,7,25,12.1
61794,80033,2011/05/03 07:30:16,43.1557,9.1915,16.52,0.09013,0.07413,00111100,6,26,12.1
61794,80033,2011/05/03 08:00:16,43.1570,9.1937,16.52,0.099141,0.080307,00111100,7,30,12.1
61794,80033,2011/05/03 08:30:17,43.1583,9.1961,16.52,0.108092,0.080263,00111100,7,28,12.1
61794,80033,2011/05/03 09:00:39,43.1598,9.1981,16.6,0.089036,0.091544,00111100,5,31,12.1
61794,80033,2011/05/03 09:30:13,43.1609,9.2001,16.6,0.091443,0.068948,00111100,5,30,12.1
61794,80033,2011/05/03 10:00:20,43.1616,9.2021,16.6,0.089772,0.043075,00111100,4,34,12.1
61794,80033,2011/05/03 10:30:29,43.1622,9.2038,16.76,0.076221,0.036881,00111100,4,33,12.1
61794,80033,2011/05/03 11:00:23,43.1630,9.2054,16.76,0.072336,0.049585,00111100,5,38,12.1
61794,80033,2011/05/03 11:30:16,43.1639,9.2070,16.76,0.072376,0.055815,00111100,5,38,12.1
61794,80033,2011/05/03 12:00:39,43.1649,9.2087,16.76,0.075633,0.060996,00111100,4,39,12.1
61794,80033,2011/05/03 12:30:17,43.1663,9.2104,16.76,0.077545,0.087555,00111100,6,39,12.1
61794,80033,2011/05/03 13:00:16,43.1677,9.2117,16.92,0.058606,0.086533,00111100,6,42,12.1
61794,80033,2011/05/03 13:30:39,43.1690,9.2128,16.92,0.048936,0.079294,00111100,5,41,12.1
61794,80033,2011/05/03 14:00:16,43.1702,9.2143,16.92,0.068456,0.075089,00111100,5,38,12.1
61794,80033,2011/05/03 14:30:16,43.1712,9.2158,16.92,0.06758,0.061775,00111100,5,38,12.1
61794,80033,2011/05/03 15:00:17,43.1718,9.2174,16.92,0.072045,0.037044,00111100,4,44,12.1
61794,80033,2011/05/03 15:30:16,43.1731,9.2191,16.92,0.076632,0.080352,00111100,4,44,12.1
61794,80033,2011/05/03 16:00:35,43.1740,9.2212,16.92,0.09362,0.055017,00111100,4,44,12.1
61794,80033,2011/05/03 16:30:16,43.1749,9.2232,16.92,0.091063,0.056191,00111100,4,46,12.1
61794,80033,2011/05/03 17:00:17,43.1759,9.2249,16.84,0.076543,0.061741,00111100,8,47,12.1
61794,80033,2011/05/03 17:30:39,43.1766,9.2270,16.76,0.093462,0.04272,00111100,8,47,12.1
61794,80033,2011/05/03 18:00:15,43.1774,9.2284,16.76,0.063921,0.050088,00111100,5,55,12.1
61794,80033,2011/05/03 18:31:04,43.1781,9.2303,16.68,0.083324,0.042097,00111100,5,55,12.1
61794,80033,2011/05/03 19:00:22,43.1787,9.2323,16.68,0.092248,0.03795,00111100,1,47,12.1
61794,80033,2011/05/03 19:01:04,43.1787,9.2323,16.68,0,0,00111100,6,47,12.1
61794,80033,2011/05/03 19:30:22,43.1794,9.2340,16.68,0.07841,0.044276,00111100,6,47,12.1
61794,80033,2011/05/03 20:00:57,43.1800,9.2354,16.6,0.061863,0.036358,00111100,3,47,12.1
61794,80033,2011/05/03 20:30:22,43.1802,9.2377,16.6,0.105662,0.0126,00111100,4,47,12.1
61794,80033,2011/05/03 21:00:16,43.1805,9.2394,16.6,0.076835,0.018594,00111100,4,49,12.1
61794,80033,2011/05/03 21:30:34,43.1803,9.2408,16.6,0.062441,-0.012233,00111100,3,49,12.1
61794,80033,2011/05/03 22:00:35,43.1812,9.2420,16.52,0.054025,0.055567,00111100,3,55,12.1
61794,80033,2011/05/03 22:30:29,43.1816,9.2431,16.52,0.049716,0.024793,00111100,4,57,12.1
61794,80033,2011/05/03 23:00:39,43.1827,9.2441,16.52,0.044796,0.067577,00111100,4,50,12.1
61794,80033,2011/05/03 23:30:16,43.1835,9.2450,16.52,0.041065,0.05006,00111100,5,52,12.1
61794,80033,2011/05/04 00:00:16,43.1840,9.2456,16.52,0.027026,0.030887,00111100,5,53,12.1
61794,80033,2011/05/04 00:30:15,43.1846,9.2457,16.52,0.004507,0.037086,00111100,4,53,12.1
61794,80033,2011/05/04 01:00:11,43.1851,9.2455,16.52,-0.009029,0.030956,00111100,4,49,12.1
61794,80033,2011/05/04 01:30:19,43.1860,9.2451,16.52,-0.017937,0.055351,00111100,5,49,12.1
61794,80033,2011/05/04 02:00:17,43.1871,9.2444,16.44,-0.031564,0.068028,00111100,7,55,12.1
61794,80033,2011/05/04 02:30:29,43.1885,9.2452,16.44,0.035794,0.085912,00111100,7,55,12.1
61794,80033,2011/05/04 03:00:19,43.1897,9.2456,16.44,0.018117,0.074544,00111100,6,53,12.1
61794,80033,2011/05/04 03:32:34,43.1920,9.2465,16.44,0.037707,0.13217,00111100,6,53,12.1
61794,80033,2011/05/04 04:00:24,43.1937,9.2473,16.44,0.038835,0.113192,00111100,6,55,12.1
61794,80033,2011/05/04 04:30:23,43.1954,9.2486,16.52,0.058579,0.105076,00111100,7,55,12.1
61794,80033,2011/05/04 05:00:40,43.1974,9.2503,16.52,0.075843,0.122394,00111100,7,53,12.1
61794,80033,2011/05/04 05:30:16,43.1995,9.2523,16.52,0.091283,0.13148,00111100,8,53,12.1
61794,80033,2011/05/04 06:00:15,43.2015,9.2542,16.52,0.085608,0.123619,00111100,8,55,12.1
61794,80033,2011/05/04 06:30:16,43.2032,9.2560,16.52,0.081009,0.104959,00111100,4,55,12.1
61794,80033,2011/05/04 07:00:19,43.2048,9.2577,16.6,0.076422,0.098675,00111100,4,50,12.1
61794,80033,2011/05/04 07:30:16,43.2062,9.2593,16.6,0.072165,0.086629,00111100,3,50,12.1
61794,80033,2011/05/04 08:00:23,43.2074,9.2614,16.68,0.09419,0.073843,00111100,3,53,12.1
61794,80033,2011/05/04 08:30:16,43.2082,9.2632,16.76,0.081364,0.049613,00111100,3,55,12.1
61794,80033,2011/05/04 09:00:56,43.2088,9.2649,16.92,0.07488,0.036259,00111100,1,49,12.1
61794,80033,2011/05/04 09:30:16,43.2092,9.2661,17,0.055258,0.025272,00111100,1,49,12.1
61794,80033,2011/05/04 10:00:22,43.2093,9.2671,17.32,0.044876,0.006157,00111100,1,46,12.1
61794,80033,2011/05/04 10:30:23,43.2095,9.2681,17.64,0.045,0.012348,00111100,1,44,12.1
61794,80033,2011/05/04 11:00:39,43.2096,9.2689,17.64,0.035703,0.006123,00111100,1,57,12.1
61794,80033,2011/05/04 11:30:11,43.2096,9.2694,17.56,0.022868,0,00111100,1,57,12.1
61794,80033,2011/05/04 12:00:15,43.2097,9.2698,17.48,0.01797,0.006164,00111100,1,46,12.1
61794,80033,2011/05/04 12:30:16,43.2101,9.2702,17.64,0.018,0.024696,00111100,4,44,12.1
61794,80033,2011/05/04 13:00:16,43.2105,9.2704,17.64,0.009005,0.02471,00111100,4,50,12.1
61794,80033,2011/05/04 13:31:09,43.2110,9.2707,17.64,0.013121,0.030004,00111100,5,49,12.1
61794,80033,2011/05/04 14:00:17,43.2117,9.2704,17.64,-0.013909,0.044529,00111100,5,49,12.1
61794,80033,2011/05/04 14:30:39,43.2126,9.2697,17.72,-0.031136,0.054926,00111100,4,50,12.1
61794,80033,2011/05/04 15:00:15,43.2137,9.2690,17.88,-0.031941,0.068871,00111100,6,44,12.1
61794,80033,2011/05/04 15:30:16,43.2150,9.2682,17.96,-0.035997,0.080263,00111100,6,44,12.1
61794,80033,2011/05/04 16:00:16,43.2166,9.2678,17.96,-0.018008,0.09884,00111100,3,46,12.1
61794,80033,2011/05/04 16:30:16,43.2184,9.2675,17.88,-0.013506,0.111195,00111100,3,44,12.1
61794,80033,2011/05/04 17:00:21,43.2204,9.2672,17.8,-0.013468,0.123208,00111100,3,46,12.1
61794,80033,2011/05/04 17:30:27,43.2227,9.2674,17.72,0.008973,0.14161,00111100,5,44,12.1
61794,80033,2011/05/04 18:00:16,43.2250,9.2678,17.64,0.018116,0.142956,00111100,5,42,12.1
61794,80033,2011/05/04 18:30:40,43.2267,9.2689,17.48,0.048863,0.103636,00111100,3,42,12.1
61794,80033,2011/05/04 19:00:40,43.2285,9.2696,17.4,0.031508,0.111195,00111100,3,49,12.1
61794,80033,2011/05/04 19:30:17,43.2299,9.2711,17.4,0.06839,0.087604,00111100,3,47,12.1
61794,80033,2011/05/04 20:00:39,43.2320,9.2729,17.32,0.080038,0.128161,00111100,3,46,12.1
61794,80033,2011/05/04 20:30:16,43.2339,9.2746,17.24,0.077503,0.118892,00111100,1,46,12.1
61794,80033,2011/05/04 21:00:14,43.2354,9.2766,17.24,0.090113,0.092766,00111100,3,46,12.1
61794,80033,2011/05/04 21:30:15,43.2365,9.2788,17.08,0.098957,0.067915,00111100,3,46,12.1
61794,80033,2011/05/04 22:00:16,43.2376,9.2807,17,0.085461,0.067915,00111100,1,42,12.1
61794,80033,2011/05/04 22:30:23,43.2385,9.2834,17,0.12104,0.055382,00111100,1,42,12.1
61794,80033,2011/05/04 23:00:39,43.2394,9.2851,17.08,0.075831,0.055108,00111100,1,46,12.1
61794,80033,2011/05/04 23:30:16,43.2393,9.2867,17.08,0.072937,-0.006257,00111100,1,46,12
61794,80033,2011/05/05 00:00:17,43.2400,9.2877,17.08,0.044978,0.043218,00111100,1,44,12
61794,80033,2011/05/05 00:30:16,43.2401,9.2885,17.08,0.036022,0.006181,00111100,1,44,12.1
61794,80033,2011/05/05 01:00:17,43.2403,9.2893,17,0.035982,0.012348,00111100,1,49,12.1
61794,80033,2011/05/05 01:30:18,43.2403,9.2900,17,0.031484,0,00111100,1,49,12.1
61794,80033,2011/05/05 02:00:40,43.2405,9.2899,16.84,-0.004446,0.012206,00111100,1,49,12.1
61794,80033,2011/05/05 02:30:16,43.2406,9.2892,16.68,-0.031927,0.006261,00111100,4,47,11.6
61794,80033,2011/05/05 03:00:17,43.2416,9.2882,16.52,-0.044977,0.061741,00111100,5,47,11.6
61794,80033,2011/05/05 03:30:37,43.2424,9.2870,16.44,-0.053408,0.048877,00111100,5,46,12.1
61794,80033,2011/05/05 04:00:23,43.2437,9.2860,16.36,-0.045353,0.080937,00111100,5,44,12.1
61794,80033,2011/05/05 04:30:16,43.2451,9.2854,16.36,-0.027105,0.086823,00111100,5,44,12.1
61794,80033,2011/05/05 05:00:41,43.2466,9.2849,16.36,-0.022191,0.091393,00111100,3,46,12.1
61794,80033,2011/05/05 05:30:17,43.2482,9.2846,16.36,-0.013682,0.100176,00111100,6,46,12
61794,80033,2011/05/05 06:00:16,43.2500,9.2844,16.36,-0.009004,0.111257,00111100,6,49,12
61794,80033,2011/05/05 06:30:17,43.2519,9.2840,16.36,-0.017988,0.117307,00111100,5,50,12
61794,80033,2011/05/05 07:00:16,43.2538,9.2839,16.36,-0.004502,0.117438,00111100,4,52,12
61794,80033,2011/05/05 07:30:17,43.2553,9.2840,16.36,0.004497,0.092611,00111100,4,52,12
61794,80033,2011/05/05 08:00:23,43.2568,9.2839,16.36,-0.004484,0.092355,00111100,4,52,12
61794,80033,2011/05/05 08:30:25,43.2583,9.2828,16.36,-0.049434,0.09256,00111100,3,52,12.1
61794,80033,2011/05/05 09:00:39,43.2599,9.2824,16.44,-0.017856,0.098077,00111100,3,49,12.1
61794,80033,2011/05/05 09:30:39,43.2616,9.2816,16.44,-0.03599,0.105017,00111100,1,49,12.1
61794,80033,2011/05/05 10:00:39,43.2636,9.2816,16.52,0,0.12355,00111100,5,53,12.1
61794,80033,2011/05/05 10:30:18,43.2656,9.2819,16.52,0.013655,0.125008,00111100,1,53,12
61794,80033,2011/05/05 11:00:22,43.2672,9.2811,16.6,-0.035907,0.098621,00111100,1,50,12
61794,80033,2011/05/05 11:30:28,43.2685,9.2807,16.6,-0.017933,0.080041,00111100,1,49,12
61794,80033,2011/05/05 12:00:17,43.2699,9.2801,16.68,-0.027154,0.087017,00111100,1,58,12
61794,80033,2011/05/05 12:30:23,43.2709,9.2793,16.76,-0.035864,0.06157,00111100,7,60,12
61794,80033,2011/05/05 13:00:40,43.2728,9.2785,16.92,-0.035646,0.116274,00111100,3,47,12
61794,80033,2011/05/05 13:30:15,43.2744,9.2780,16.92,-0.022806,0.100232,00111100,4,49,12
61794,80033,2011/05/05 14:00:16,43.2763,9.2780,17,0,0.117307,00111100,4,49,12
61794,80033,2011/05/05 14:30:17,43.2783,9.2781,17.08,0.004495,0.123481,00111100,5,28,12
61794,80033,2011/05/05 15:00:15,43.2803,9.2780,17.08,-0.004502,0.123687,00111100,5,46,12
61794,80033,2011/05/05 15:30:22,43.2824,9.2781,17.16,0.00448,0.129225,00111100,4,46,12
61794,80033,2011/05/05 16:00:16,43.2845,9.2782,17.08,0.004512,0.130161,00111100,4,42,12
61794,80033,2011/05/05 16:30:39,43.2863,9.2787,17.16,0.022201,0.109792,00111100,5,41,12
61794,80033,2011/05/05 17:00:15,43.2876,9.2796,17.16,0.041018,0.081393,00111100,5,41,12
61794,80033,2011/05/05 17:30:16,43.2887,9.2804,17.08,0.035954,0.067915,00111100,3,41,12
61794,80033,2011/05/05 18:00:16,43.2893,9.2811,17.08,0.031476,0.037065,00111100,3,33,12
61794,80033,2011/05/05 18:30:17,43.2906,9.2817,17.08,0.026964,0.080263,00111100,4,31,12
61794,80033,2011/05/05 19:00:16,43.2914,9.2819,17,0.008998,0.049447,00111100,4,33,12
61794,80033,2011/05/05 19:30:16,43.2920,9.2822,16.92,0.013489,0.037065,00111100,3,34,12
61794,80033,2011/05/05 20:00:35,43.2924,9.2824,16.92,0.008899,0.024452,00111100,3,38,12
61794,80033,2011/05/05 20:30:15,43.2927,9.2830,16.92,0.027281,0.018741,00111100,1,38,12
61794,80033,2011/05/05 21:00:36,43.2929,9.2834,16.92,0.017778,0.012213,00111100,1,38,12
61794,80033,2011/05/05 21:30:15,43.2931,9.2832,16.76,-0.009099,0.012501,00111100,3,36,12
61794,80033,2011/05/05 22:00:15,43.2933,9.2828,16.68,-0.017985,0.012355,00111100,3,36,12
61794,80033,2011/05/05 22:30:16,43.2938,9.2821,16.6,-0.031457,0.03087,00111100,3,36,12
61794,80033,2011/05/05 23:00:18,43.2944,9.2813,16.6,-0.03593,0.037024,00111100,3,28,12
61794,80033,2011/05/05 23:30:16,43.2949,9.2802,16.6,-0.049513,0.030922,00111100,3,28,12
61794,80033,2011/05/06 00:00:39,43.2956,9.2781,16.6,-0.093228,0.042697,00111100,3,31,12
61794,80033,2011/05/06 00:30:17,43.2962,9.2770,16.52,-0.050069,0.037524,00111100,1,31,12
61794,80033,2011/05/06 01:00:17,43.2970,9.2751,16.52,-0.085425,0.04942,00111100,1,26,12
61794,80033,2011/05/06 01:30:16,43.2981,9.2730,16.44,-0.094468,0.06799,00111100,1,26,12
61794,80033,2011/05/06 02:00:23,43.2994,9.2701,16.44,-0.129876,0.079996,00111100,1,36,12
61794,80033,2011/05/06 02:30:15,43.3006,9.2679,16.52,-0.099349,0.074461,00111100,3,34,12
61794,80033,2011/05/06 03:00:30,43.3022,9.2656,16.52,-0.102547,0.098023,00111100,5,26,12
61794,80033,2011/05/06 03:30:38,43.3040,9.2635,16.52,-0.09399,0.110703,00111100,5,26,12
61794,80033,2011/05/06 04:00:16,43.3057,9.2613,16.6,-0.100124,0.106317,00111100,7,31,12
61794,80033,2011/05/06 04:30:40,43.3073,9.2590,16.6,-0.102032,0.097539,00111100,7,33,12
61794,80033,2011/05/06 05:00:16,43.3088,9.2571,16.68,-0.086563,0.093915,00111100,5,30,12
61794,80033,2011/05/06 05:30:14,43.3101,9.2555,16.68,-0.072002,0.080397,00111100,5,28,12
61794,80033,2011/05/06 06:00:18,43.3116,9.2540,16.68,-0.067276,0.092457,00111100,3,33,12
61794,80033,2011/05/06 06:30:40,43.3131,9.2523,16.76,-0.075491,0.091544,00111100,3,31,12
61794,80033,2011/05/06 07:00:11,43.3147,9.2511,16.76,-0.054821,0.100458,00111100,3,41,12
61794,80033,2011/05/06 07:30:15,43.3162,9.2501,16.76,-0.044847,0.092457,00111100,3,38,12
61794,80033,2011/05/06 08:00:15,43.3177,9.2493,16.76,-0.035956,0.092662,00111100,3,46,12
61794,80033,2011/05/06 08:30:18,43.3187,9.2486,16.76,-0.031409,0.061672,00111100,3,44,12
61794,80033,2011/05/06 09:01:11,43.3198,9.2481,16.76,-0.021829,0.066009,00111100,3,42,12
61794,80033,2011/05/06 09:30:23,43.3204,9.2475,16.84,-0.027705,0.03808,00111100,1,41,12
61794,80033,2011/05/06 10:00:24,43.3209,9.2467,16.92,-0.035934,0.03087,00111100,1,42,12
61794,80033,2011/05/06 10:30:39,43.3211,9.2458,16.92,-0.040114,0.012253,00111100,1,42,12
61794,80033,2011/05/06 11:00:18,43.3212,9.2444,16.92,-0.063662,0.00625,00111100,1,49,12
61794,80033,2011/05/06 11:30:17,43.3212,9.2438,17,-0.02698,0,00111100,1,49,12
61794,80033,2011/05/06 12:00:17,43.3211,9.2424,17,-0.062919,-0.006177,00111100,6,44,12
61794,80033,2011/05/06 12:30:17,43.3204,9.2407,17.08,-0.076403,-0.043242,00111100,5,42,12
61794,80033,2011/05/06 13:00:18,43.3201,9.2388,17.08,-0.085345,-0.018522,00111100,5,47,12
61794,80033,2011/05/06 13:30:34,43.3202,9.2365,17.08,-0.102459,0.006123,00111100,4,47,12
61794,80033,2011/05/06 14:00:33,43.3199,9.2338,17.08,-0.121414,-0.018543,00111100,3,46,12
61794,80033,2011/05/06 14:30:16,43.3197,9.2313,17.16,-0.11343,-0.012473,00111100,5,44,12
61794,80033,2011/05/06 15:00:16,43.3193,9.2284,17.16,-0.130337,-0.02471,00111100,5,50,12
61794,80033,2011/05/06 15:30:22,43.3191,9.2257,17.16,-0.120945,-0.012314,00111100,4,50,12
61794,80033,2011/05/06 16:00:16,43.3190,9.2226,17.16,-0.139793,-0.006198,00111100,4,44,12
61794,80033,2011/05/06 16:30:17,43.3184,9.2201,17.16,-0.112298,-0.037044,00111100,6,46,12
61794,80033,2011/05/06 17:00:17,43.3188,9.2172,17.16,-0.130339,0.02471,00111100,6,44,12
61794,80033,2011/05/06 17:30:38,43.3189,9.2145,17.08,-0.11995,0.006106,00111100,4,42,12
61794,80033,2011/05/06 18:00:17,43.3193,9.2118,17.08,-0.122781,0.025002,00111100,4,47,12
61794,80033,2011/05/06 18:30:23,43.3192,9.2090,17.08,-0.125425,-0.006157,00111100,4,47,12
61794,80033,2011/05/06 19:00:39,43.3196,9.2059,17.08,-0.138098,0.024492,00111100,4,41,12
61794,80033,2011/05/06 19:30:15,43.3203,9.2031,17.08,-0.127542,0.043827,00111100,4,38,12
61794,80033,2011/05/06 20:00:16,43.3208,9.2008,17,-0.103311,0.03087,00111100,4,47,12
61794,80033,2011/05/06 20:30:16,43.3212,9.1986,17,-0.098874,0.02471,00111100,4,47,12
61794,80033,2011/05/06 21:00:39,43.3218,9.1964,17,-0.097625,0.036597,00111100,1,41,12
61794,80033,2011/05/06 21:30:16,43.3217,9.1945,17,-0.086495,-0.006257,00111100,1,39,12
61794,80033,2011/05/06 22:00:16,43.3226,9.1927,17,-0.080895,0.055597,00111100,1,38,12
61794,80033,2011/05/06 22:30:17,43.3226,9.1913,17,-0.062883,0,00111100,1,39,12
61794,80033,2011/05/06 23:00:23,43.3235,9.1899,17,-0.062708,0.055413,00111100,1,47,12
61794,80033,2011/05/06 23:30:39,43.3235,9.1885,16.92,-0.062363,0,00111100,1,49,12
61794,80033,2011/05/07 00:00:17,43.3241,9.1876,16.92,-0.040947,0.037524,00111100,1,46,12
61794,80033,2011/05/07 00:30:17,43.3238,9.1864,16.92,-0.053929,-0.018532,00111100,1,46,12
61794,80033,2011/05/07 01:00:16,43.3235,9.1854,16.92,-0.044966,-0.018543,00111100,1,41,12
61794,80033,2011/05/07 01:30:18,43.3232,9.1837,16.92,-0.076315,-0.018512,00111100,1,42,12
61794,80033,2011/05/07 02:00:29,43.3222,9.1823,16.84,-0.062536,-0.0614,00111100,1,39,12
61794,80033,2011/05/07 02:30:39,43.3223,9.1808,16.84,-0.06704,0.006143,00111100,4,39,12
61794,80033,2011/05/07 03:00:28,43.3215,9.1796,16.76,-0.054262,-0.049724,00111100,4,42,12
61794,80033,2011/05/07 03:30:16,43.3204,9.1777,16.76,-0.085964,-0.068409,00111100,4,42,12
61794,80033,2011/05/07 04:00:18,43.3192,9.1765,16.76,-0.053872,-0.074048,00111100,5,55,12
61794,80033,2011/05/07 04:30:16,43.3186,9.1747,16.84,-0.080989,-0.037106,00111100,5,57,12
61794,80033,2011/05/07 05:00:40,43.3175,9.1725,16.76,-0.097577,-0.067058,00111100,4,49,12
61794,80033,2011/05/07 05:30:16,43.3171,9.1708,16.76,-0.07744,-0.025044,00111100,4,49,12
61794,80033,2011/05/07 06:00:17,43.3169,9.1686,16.76,-0.098825,-0.012348,00111100,4,47,12
61794,80033,2011/05/07 06:30:17,43.3164,9.1661,16.76,-0.112365,-0.030887,00111100,4,47,12
61794,80033,2011/05/07 07:00:16,43.3167,9.1638,16.76,-0.103433,0.018543,00111100,4,46,12